Weather History for KUIL - April, 2011

Change the Weather History Date:

Wednesday, April 13, 2011

  Actual Average Record
Temperature  
Mean Temperature 43 °F 46 °F  
Max Temperature 50 °F 54 °F 74 °F (1989)
Min Temperature 36 °F 38 °F 27 °F (1983)
Degree Days  
Heating Degree Days 22 19  
Month to date heating degree days 250  
Since 1 July heating degree days 4743  
Cooling Degree Days 0 0  
Month to date cooling degree days 0  
Year to date cooling degree days 0  
Moisture  
Dew Point 38 °F    
Average Humidity 86    
Maximum Humidity 100    
Minimum Humidity 63    
Precipitation  
Precipitation 0.42 in 0.27 in 2.24 in (2002)
Month to date precipitation 3.73  
Year to date precipitation 39.52  
Sea Level Pressure  
Sea Level Pressure 29.93 in    
Wind  
Wind Speed 7 mph (South)    
Max Wind Speed 17 mph    
Max Gust Speed 31 mph    
Visibility 8 miles    
Events Rain    
T = Trace of Precipitation, MM = Missing Value Source: NWS Daily Summary

Daily Weather History Graph

Daily Weather History Graph

Search for Another Location

Airport or City:

Trip Planner

Search our weather history database for the weather conditions in past years. The results will help you decide how hot, cold, wet, or windy it might be!

Date:

Astronomy

Apr. 13, 2011 Rise Set
Actual Time 6:33 AM PDT 8:05 PM PDT
Civil Twilight 6:00 AM PDT 8:37 PM PDT
Nautical Twilight 5:21 AM PDT 9:17 PM PDT
Astronomical Twilight 4:38 AM PDT 10:00 PM PDT
Moon 2:53 PM PDT (4/13) 4:01 AM PDT (4/13)
Length of Visible Light 14h 37m
Length of Day
13h 32m
Waxing Gibbous, 75% of the Moon is Illuminated
Apr 13
Waxing Gibbous
Apr 17
Full
Apr 24
Last Quarter
May 2
New
May 10
First Quarter

Hourly Weather History & Observations

Time (PDT) Temp. Windchill Dew Point Humidity Pressure Visibility Wind Dir Wind Speed Gust Speed Precip Events Conditions
12:53 AM 43.0 °F 40.3 °F 34.0 °F 71% 29.90 in 10.0 mi ESE 4.6 mph - N/A   Overcast
1:53 AM 42.1 °F 37.7 °F 34.0 °F 73% 29.89 in 10.0 mi ESE 6.9 mph - N/A   Overcast
2:53 AM 43.0 °F 38.2 °F 34.0 °F 71% 29.87 in 10.0 mi ESE 8.1 mph - N/A   Overcast
3:53 AM 44.1 °F 37.7 °F 35.1 °F 71% 29.86 in 10.0 mi SE 12.7 mph 19.6 mph 0.00 in Rain Light Rain
4:53 AM 43.0 °F 39.5 °F 35.1 °F 74% 29.86 in 10.0 mi Variable 5.8 mph - 0.00 in Rain Light Rain
5:19 AM 42.8 °F 37.5 °F 37.4 °F 81% 29.85 in 6.0 mi SSE 9.2 mph 23.0 mph 0.02 in Rain Light Rain
5:53 AM 41.0 °F 36.4 °F 39.0 °F 93% 29.86 in 6.0 mi SSE 6.9 mph - 0.05 in Rain Light Rain
6:53 AM 39.9 °F 34.5 °F 37.9 °F 93% 29.86 in 10.0 mi SE 8.1 mph - 0.03 in Rain Light Rain
7:53 AM 39.9 °F 35.1 °F 37.9 °F 93% 29.87 in 10.0 mi SSE 6.9 mph - 0.01 in Rain Light Rain
8:53 AM 39.9 °F 35.8 °F 37.9 °F 93% 29.88 in 5.0 mi SSE 5.8 mph - 0.02 in Rain Light Rain
9:53 AM 39.9 °F 36.7 °F 39.0 °F 97% 29.88 in 7.0 mi SE 4.6 mph - 0.02 in Rain Light Rain
10:53 AM 41.0 °F 37.1 °F 39.9 °F 96% 29.90 in 6.0 mi SSE 5.8 mph - 0.02 in Rain Light Rain
11:53 AM 43.0 °F 39.5 °F 42.1 °F 97% 29.91 in 10.0 mi SSE 5.8 mph - 0.00 in Rain Light Rain
12:19 PM 44.6 °F 42.2 °F 42.8 °F 93% 29.90 in 10.0 mi Variable 4.6 mph - 0.00 in   Overcast
12:29 PM 44.6 °F 41.4 °F 42.8 °F 93% 29.91 in 10.0 mi SSE 5.8 mph - 0.00 in   Overcast
12:53 PM 46.0 °F 41.9 °F 42.1 °F 86% 29.91 in 10.0 mi South 8.1 mph - 0.00 in   Overcast
1:03 PM 46.4 °F 42.4 °F 42.8 °F 87% 29.91 in 10.0 mi SSW 8.1 mph - N/A   Overcast
1:53 PM 45.0 °F 41.2 °F 42.1 °F 90% 29.94 in 10.0 mi SW 6.9 mph - 0.00 in   Overcast
2:07 PM 46.4 °F 42.9 °F 42.8 °F 87% 29.93 in 10.0 mi SSW 6.9 mph - N/A   Mostly Cloudy
2:53 PM 48.9 °F - 39.0 °F 69% 29.94 in 10.0 mi SW 9.2 mph 21.9 mph N/A   Mostly Cloudy
3:53 PM 48.0 °F - 36.0 °F 63% 29.96 in 10.0 mi SSW 12.7 mph 19.6 mph N/A   Scattered Clouds
4:53 PM 46.0 °F 41.4 °F 39.0 °F 76% 29.96 in 10.0 mi South 9.2 mph - 0.00 in Rain Light Rain
5:53 PM 44.1 °F 40.1 °F 39.0 °F 82% 29.96 in 10.0 mi South 6.9 mph 16.1 mph 0.01 in Rain Light Rain
6:53 PM 43.0 °F 36.8 °F 37.0 °F 80% 29.97 in 5.0 mi South 11.5 mph 23.0 mph 0.00 in   Haze
7:31 PM 39.2 °F 33.6 °F 37.4 °F 93% 29.97 in 2.5 mi WSW 8.1 mph - 0.06 in Rain Heavy Rain
7:40 PM 39.2 °F 34.2 °F 39.2 °F 100% 29.97 in 8.0 mi SSW 6.9 mph - 0.07 in Rain Light Rain
7:53 PM 41.0 °F 35.2 °F 39.0 °F 93% 29.97 in 8.0 mi South 9.2 mph 16.1 mph 0.07 in Rain Light Rain
8:35 PM 39.2 °F 37.0 °F 37.4 °F 93% 29.98 in 10.0 mi Variable 3.5 mph - 0.02 in   Overcast
8:53 PM 39.0 °F 34.8 °F 37.9 °F 96% 29.99 in 10.0 mi SSE 5.8 mph - 0.02 in   Overcast
9:53 PM 39.9 °F 37.8 °F 37.9 °F 93% 29.99 in 10.0 mi SSE 3.5 mph - 0.01 in   Scattered Clouds
10:53 PM 39.9 °F 33.9 °F 36.0 °F 86% 30.00 in 6.0 mi South 9.2 mph 31.1 mph 0.00 in Rain Light Rain
11:38 PM 37.4 °F - 35.6 °F 93% 29.99 in 2.5 mi Calm Calm - 0.03 in Rain Rain
11:53 PM 37.0 °F - 36.0 °F 96% 30.01 in 4.0 mi Calm Calm - 0.08 in Rain Rain